Location: Antoign�
(47.0844°N, 0.1131°W)
Time: 23:36:45
(UTC+00:00)

HJ-1C - Pass Details

Date: 03 March 2021
Orbit: 428 x 440 km, 97.1° (Epoch: 14 April)

Event Time Altitude Azimuth Distance (km) Brightness Sun altitude
Rises 18:32:08 0° 153° (SSE) 2,416 6.8 -8.1°
Reaches altitude 10° 18:34:12 10° 147° (SSE) 1,550 5.8 -8.5°
Maximum altitude 18:37:23 46° 73° (ENE) 598 3.6 -9.0°
Drops below altitude 10° 18:40:36 10° 359° (N) 1,556 6.2 -9.6°
Sets 18:42:40 0° 354° (N) 2,428 7.2 -9.9°
